Regional Weather Roundup
Issued by NWS

Home | Current Version | Previous Version | Text Only | Print | Product List | Glossary On
Versions: 1 2 3 4 5 6 7 8 9 10 11 12 13 14 15 16 17 18 19 20 21 22 23 24 25 26 27 28 29 30 31 32 33 34 35 36 37 38 39 40 41 42 43 44 45 46 47 48 49 50
648
ASUS43 KMKX 180220
RWRWI

WISCONSIN REGIONAL WEATHER ROUNDUP
NATIONAL WEATHER SERVICE MILWAUKEE/SULLIVAN WI
800 PM CST WED JAN 17 2018

NOTE: "FAIR" INDICATES FEW OR NO CLOUDS BELOW 12,000 FEET WITH NO
SIGNIFICANT WEATHER AND/OR OBSTRUCTIONS TO VISIBILITY.

WIZ001-002-006>008-014>016-023>028-180300-
NORTHWEST WISCONSIN

CITY           SKY/WX    TMP DP  RH WIND       PRES   REMARKS
SUPERIOR ARPT  FAIR      24  11  59 SW12      29.91S WCI  13
ASHLAND        FAIR      25  10  53 SW16G28   29.90R WCI  12
HAYWARD        FAIR      20   8  60 SW8       29.94F WCI  10
SIREN          FAIR      24  14  64 SW14      29.97F WCI  12
CUMBERLAND     FAIR      21  10  63 SW15      29.98F WCI   8
RICE LAKE      FAIR      22  13  69 CALM      30.02F
CHETEK         FAIR      22  13  67 W5        30.02F WCI  16
LADYSMITH      FAIR      19  10  66 SW8       30.00F WCI   9
EAU CLAIRE     FAIR      23  12  62 SW14      30.06S WCI  11
MENOMONIE      FAIR      23  14  68 SW8       30.06F WCI  14
NEW RICHMOND   FAIR      21  13  70 SW10      30.04F WCI  10
OSCEOLA        FAIR      24  15  68 SW8       30.07F WCI  15
$$

WIZ003>005-009-010-017-018-180300-
NORTH CENTRAL WISCONSIN

CITY           SKY/WX    TMP DP  RH WIND       PRES   REMARKS
MANITOWISH WTR FAIR      19   7  59 SW13      29.88S WCI   6
ARBOR VITAE    FAIR      22  10  61 W9G16     29.89S WCI  11
WOODRUFF       FAIR      22  10  61 W9G16     29.89S WCI  11
RHINELANDER    FAIR      20  10  65 W16G24    29.90F WCI   6
EAGLE RIVER    FAIR      19   8  62 SW12      29.87S WCI   6
LAND O LAKES   FAIR      21  10  61 SW8       29.87F WCI  11
PHILLIPS       FAIR      19   9  64 SW12      29.93F WCI   6
TOMAHAWK       FAIR      20   9  62 SW6       29.95F WCI  12
MEDFORD        FAIR      19   8  62 SW10      29.98F WCI   7
MERRILL        FAIR      20   9  60 W12       29.98F WCI   8
$$

WIZ029-030-035-036-043>047-180300-
CENTRAL WISCONSIN

CITY           SKY/WX    TMP DP  RH WIND       PRES   REMARKS
WAUSAU         FAIR      20   8  60 SW10      29.99F WCI   9
MOSINEE        CLEAR     19  10  68 SW14      30.02S WCI   6
MARSHFIELD     FAIR      19   9  65 W15       30.02F WCI   5
STEVENS POINT  FAIR      19   7  59 SW14G21   30.03F WCI   5
WAUPACA        FAIR      24   8  51 SW13      30.06S WCI  12
WAUTOMA        FAIR      20   8  60 SW14      30.08F WCI   7
WISC RAPIDS    FAIR      19   6  57 SW10      30.07S WCI   7
CAMP DOUGLAS   CLEAR     21   9  58 W16G23    30.09F WCI   7
$$

WIZ011>013-019>022-031-037>040-048>050-180300-
NORTHEAST WISCONSIN

CITY           SKY/WX    TMP DP  RH WIND       PRES   REMARKS
ANTIGO         FAIR      20   8  59 W18G25    29.94F WCI   5
SHAWANO        FAIR      24   9  51 SW17G24   29.97F WCI  11
OCONTO         FAIR      23   8  50 W15G28    29.96S WCI  10
STURGEON BAY   FAIR      21   9  59 SW18G32   29.95F WCI   6
GREEN BAY      FAIR      21   7  54 SW15G23   30.00F WCI   8
MANITOWOC      FLURRIES  20   9  62 W21G30    30.02F WCI   4
APPLETON       CLEAR     19   5  53 SW21G26   30.02F WCI   3
CLINTONVILLE   FAIR      23   9  54 W16G28    30.01F WCI  10
OSHKOSH        FAIR      19   8  62 SW12G24   30.06F WCI   7
$$

WIZ032>034-041-042-053>061-180300-
SOUTHWEST WISCONSIN

CITY           SKY/WX    TMP DP  RH WIND       PRES   REMARKS
LA CROSSE      FAIR      21  11  65 SW12      30.17F WCI   9
SPARTA         FAIR      22  11  63 SW7       30.13S WCI  14
VIROQUA        FAIR      19  12  72 SW14G21   30.13F WCI   6
BOSCOBEL       FAIR      19   8  62 SW8       30.23F WCI   9
PRAIRIE DU CHI FAIR      21   8  56 SW10      30.24F WCI  10
PLATTEVILLE    FAIR      19  11  69 SW18      30.23F WCI   4
$$

WIZ056-057-062-063-064-067-068-180300-
SOUTH CENTRAL WISCONSIN

CITY           SKY/WX    TMP DP  RH WIND       PRES   REMARKS
REEDSBURG      FAIR      19   8  64 SW10G16   30.14F WCI   7
BARABOO/DELLS  FAIR      19   8  63 SW16G23   30.12F WCI   4
LONE ROCK      FAIR      19   9  65 SW8G21    30.22F WCI   9
MINERAL POINT  FAIR      21  12  68 SW17G23   30.19F WCI   7
MADISON        FAIR      19   8  62 SW13G31   30.18F WCI   6
MIDDLETON      FAIR      20  10  65 SW16G24   30.17F WCI   6
WATERTOWN      FAIR      16  10  77 SW17      30.16F WCI   0
MONROE         FAIR      18  12  79 SW25G31   30.20F WCI  -1
JANESVILLE     CLEAR     19  10  68 SW15G25   30.23F WCI   5
$$

WIZ051-052-058>065-066-070>072-180300-
SOUTHEAST WISCONSIN

CITY           SKY/WX    TMP DP  RH WIND       PRES   REMARKS
MILWAUKEE      FAIR      20  10  65 SW20G35   30.15F WCI   4
WAUKESHA       CLEAR     16   9  73 SW18G28   30.17F WCI  -1
MILWAUKEE/TIMM CLEAR     18   9  68 SW22G33   30.15F HAZE    WCI   0
RACINE         FAIR      18   9  68 SW17G30   30.20F WCI   3
BURLINGTON     FAIR      17   8  69 SW14G23   30.22F WCI   3
KENOSHA        FAIR      18   9  68 W20G35    30.21F WCI   2
FOND DU LAC    FAIR      19   7  59 SW21G31   30.08F WCI   3
SHEBOYGAN      FAIR      19  10  68 SW21G30   30.05F WCI   3
WEST BEND      FAIR      18  10  73 SW16G26   30.10F HAZE    WCI   3
JUNEAU         FAIR      17   8  68 SW17      30.16S WCI   1
$$

LSZ147-162-180300-
LAKE SUPERIOR

STATION/POSITION TIME  TEMP    WIND        PRES    WAVE
                       AIR SEA DIR/SP/G            HT/PER
                 (UTC) (F)     (DEG/KT/KT) (MB)    (FT/S)
DEVILS ISLAND    0200   28     230/ 24/ 32 1011.9S
SAXON HARBOR     0140   27     210/  9/ 13 1012.2R
$$

LMZ867-665-643>646-180300-
LAKE MICHIGAN

STATION/POSITION TIME  TEMP    WIND        PRES    WAVE
                       AIR SEA DIR/SP/G            HT/PER
                 (UTC) (F)     (DEG/KT/KT) (MB)    (FT/S)
NORTHPORT PIER   0143   23     220/  4     1013.5R
KEWAUNEE LAKESHO 0154   21     240/ 11/ 15 1014.7F
SHEBOYGAN LAKESH 0200   21     230/ 18/ 21 1019.1F
PORT WASHINGTON  0143   20     250/ 11/ 25 1020.3F
MILWAUKEE LAKESH 0200   20     250/ 26/ 33   N/A
KENOSHA   LAKESH 0200   19     240/ 19/ 26 1023.4
$$

TC  - TEMPERATURE IN CELSIUS
VSB - VISIBILITY IN STATUTE MILES
WCI - WIND CHILL INDEX
HX  - HEAT INDEX





USA.gov is the U.S. government's official web portal to all federal, state and local government web resources and services.